Time,TemperatureF,DewpointF,PressureIn,WindDirection,WindDirectionDegrees,WindSpeedMPH,WindSpeedGustMPH,Humidity,HourlyPrecipIn,Conditions,Clouds,dailyrainin,SoftwareType,DateUTC
2013-04-02 00:00:00,26.8,4.4,30.19,WNW,292,0.7,0.9,38,0.00,,,0.00,WUHU21623XXSP,2013-04-02 05:00:00,
2013-04-02 00:05:00,26.8,5.1,30.19,WSW,247,0.0,0.9,39,0.00,,,0.00,WUHU21623XXSP,2013-04-02 05:05:00,
2013-04-02 00:10:00,26.8,5.1,30.20,NNW,337,0.0,0.9,39,0.00,,,0.00,WUHU21623XXSP,2013-04-02 05:10:00,
2013-04-02 00:15:00,26.8,5.7,30.20,WNW,292,0.0,0.7,40,0.00,,,0.00,WUHU21623XXSP,2013-04-02 05:15:00,
2013-04-02 00:20:00,26.6,4.9,30.20,NW,315,0.9,0.9,39,0.00,,,0.00,WUHU21623XXSP,2013-04-02 05:20:00,
2013-04-02 00:25:00,26.2,4.6,30.20,NW,315,0.0,0.9,39,0.00,,,0.00,WUHU21623XXSP,2013-04-02 05:25:00,
2013-04-02 00:30:00,26.4,5.4,30.19,WNW,292,0.0,0.0,40,0.00,,,0.00,WUHU21623XXSP,2013-04-02 05:30:00,
2013-04-02 00:35:00,26.2,5.2,30.19,NNW,337,0.0,0.9,40,0.00,,,0.00,WUHU21623XXSP,2013-04-02 05:35:00,
2013-04-02 00:40:00,26.1,5.1,30.19,NW,315,0.0,0.9,40,0.00,,,0.00,WUHU21623XXSP,2013-04-02 05:40:00,
2013-04-02 00:45:00,25.9,4.9,30.20,WNW,292,0.4,0.7,40,0.00,,,0.00,WUHU21623XXSP,2013-04-02 05:45:00,
2013-04-02 00:50:00,25.9,5.4,30.20,NW,315,0.0,0.9,41,0.00,,,0.00,WUHU21623XXSP,2013-04-02 05:50:00,
2013-04-02 00:55:00,25.7,5.2,30.20,WNW,292,0.0,0.9,41,0.00,,,0.00,WUHU21623XXSP,2013-04-02 05:55:00,
2013-04-02 01:00:00,25.9,5.4,30.20,WNW,292,0.0,0.0,41,0.00,,,0.00,WUHU21623XXSP,2013-04-02 06:00:00,
2013-04-02 01:05:00,25.9,5.4,30.20,WNW,292,0.0,0.0,41,0.00,,,0.00,WUHU21623XXSP,2013-04-02 06:05:00,
2013-04-02 01:10:00,25.7,5.2,30.20,NW,315,0.0,0.0,41,0.00,,,0.00,WUHU21623XXSP,2013-04-02 06:10:00,
2013-04-02 01:15:00,25.5,5.1,30.20,West,270,0.0,1.1,41,0.00,,,0.00,WUHU21623XXSP,2013-04-02 06:15:00,
2013-04-02 01:20:00,25.5,5.5,30.21,WNW,292,0.0,1.1,42,0.00,,,0.00,WUHU21623XXSP,2013-04-02 06:20:00,
2013-04-02 01:25:00,25.3,5.4,30.21,WNW,292,0.0,0.0,42,0.00,,,0.00,WUHU21623XXSP,2013-04-02 06:25:00,
2013-04-02 01:30:00,25.5,5.5,30.21,NW,315,0.0,0.7,42,0.00,,,0.00,WUHU21623XXSP,2013-04-02 06:30:00,
2013-04-02 01:35:00,25.3,5.4,30.21,NW,315,0.0,0.7,42,0.00,,,0.00,WUHU21623XXSP,2013-04-02 06:35:00,
2013-04-02 01:40:00,25.2,5.7,30.21,West,270,0.0,0.0,43,0.00,,,0.00,WUHU21623XXSP,2013-04-02 06:40:00,
2013-04-02 01:45:00,25.2,5.7,30.21,West,270,0.0,0.0,44,0.00,,,0.00,WUHU21623XXSP,2013-04-02 06:45:00,
2013-04-02 01:50:00,25.0,6.0,30.21,West,270,0.0,0.0,44,0.00,,,0.00,WUHU21623XXSP,2013-04-02 06:50:00,
2013-04-02 01:55:00,25.0,6.5,30.22,West,270,0.0,0.0,45,0.00,,,0.00,WUHU21623XXSP,2013-04-02 06:55:00,
2013-04-02 02:00:00,25.0,6.5,30.21,WSW,247,0.0,0.0,45,0.00,,,0.00,WUHU21623XXSP,2013-04-02 07:00:00,
2013-04-02 02:05:00,24.8,6.3,30.21,WNW,292,0.0,0.0,45,0.00,,,0.00,WUHU21623XXSP,2013-04-02 07:05:00,
2013-04-02 02:10:00,24.8,6.3,30.21,West,270,0.0,0.0,45,0.00,,,0.00,WUHU21623XXSP,2013-04-02 07:10:00,
2013-04-02 02:15:00,24.4,6.0,30.21,WNW,292,0.0,0.0,45,0.00,,,0.00,WUHU21623XXSP,2013-04-02 07:15:00,
2013-04-02 02:20:00,24.4,6.0,30.21,West,270,0.0,0.0,45,0.00,,,0.00,WUHU21623XXSP,2013-04-02 07:20:00,
2013-04-02 02:25:00,24.4,6.5,30.21,West,270,0.0,0.0,46,0.00,,,0.00,WUHU21623XXSP,2013-04-02 07:25:00,
2013-04-02 02:30:00,24.4,7.0,30.21,West,270,0.0,0.0,47,0.00,,,0.00,WUHU21623XXSP,2013-04-02 07:30:00,
2013-04-02 02:35:00,24.4,7.0,30.21,WNW,292,0.0,0.0,47,0.00,,,0.00,WUHU21623XXSP,2013-04-02 07:35:00,
2013-04-02 02:40:00,24.3,6.8,30.21,WNW,292,0.0,0.0,47,0.00,,,0.00,WUHU21623XXSP,2013-04-02 07:40:00,
2013-04-02 02:45:00,24.3,6.8,30.21,NW,315,0.0,0.0,47,0.00,,,0.00,WUHU21623XXSP,2013-04-02 07:45:00,
2013-04-02 02:50:00,24.3,6.8,30.21,West,270,0.0,0.0,47,0.00,,,0.00,WUHU21623XXSP,2013-04-02 07:50:00,
2013-04-02 02:55:00,24.1,7.2,30.21,WNW,292,0.0,0.0,48,0.00,,,0.00,WUHU21623XXSP,2013-04-02 07:55:00,
2013-04-02 03:00:00,24.3,7.3,30.21,West,270,0.0,0.0,48,0.00,,,0.00,WUHU21623XXSP,2013-04-02 08:00:00,
2013-04-02 03:05:00,24.3,7.8,30.21,West,270,0.0,0.0,49,0.00,,,0.00,WUHU21623XXSP,2013-04-02 08:05:00,
2013-04-02 03:10:00,24.1,7.6,30.21,West,270,0.0,0.0,49,0.00,,,0.00,WUHU21623XXSP,2013-04-02 08:10:00,
2013-04-02 03:15:00,24.1,7.6,30.21,WSW,247,0.0,0.0,49,0.00,,,0.00,WUHU21623XXSP,2013-04-02 08:15:00,
2013-04-02 03:20:00,23.9,8.0,30.21,WSW,247,0.0,0.0,50,0.00,,,0.00,WUHU21623XXSP,2013-04-02 08:20:00,
2013-04-02 03:25:00,23.7,7.8,30.21,West,270,0.7,0.7,50,0.00,,,0.00,WUHU21623XXSP,2013-04-02 08:25:00,
2013-04-02 03:30:00,23.7,7.8,30.21,WSW,247,0.0,0.7,50,0.00,,,0.00,WUHU21623XXSP,2013-04-02 08:30:00,
2013-04-02 03:35:00,23.7,8.2,30.21,West,270,0.0,1.3,51,0.00,,,0.00,WUHU21623XXSP,2013-04-02 08:35:00,
2013-04-02 03:40:00,23.5,8.0,30.22,West,270,0.0,1.3,51,0.00,,,0.00,WUHU21623XXSP,2013-04-02 08:40:00,
2013-04-02 03:45:00,23.5,8.0,30.21,WNW,292,0.0,0.7,51,0.00,,,0.00,WUHU21623XXSP,2013-04-02 08:45:00,
2013-04-02 03:50:00,23.4,7.9,30.21,WNW,292,0.0,0.7,51,0.00,,,0.00,WUHU21623XXSP,2013-04-02 08:50:00,
2013-04-02 03:55:00,23.4,7.9,30.22,WNW,292,0.0,0.0,51,0.00,,,0.00,WUHU21623XXSP,2013-04-02 08:55:00,
2013-04-02 04:00:00,23.2,7.7,30.21,West,270,0.0,0.0,51,0.00,,,0.00,WUHU21623XXSP,2013-04-02 09:00:00,
2013-04-02 04:05:00,23.4,7.9,30.21,WSW,247,0.0,0.0,51,0.00,,,0.00,WUHU21623XXSP,2013-04-02 09:05:00,
2013-04-02 04:10:00,23.4,7.9,30.22,West,270,0.0,0.0,51,0.00,,,0.00,WUHU21623XXSP,2013-04-02 09:10:00,
2013-04-02 04:15:00,23.2,7.7,30.21,WNW,292,0.0,0.0,51,0.00,,,0.00,WUHU21623XXSP,2013-04-02 09:15:00,
2013-04-02 04:20:00,23.2,8.1,30.21,West,270,0.0,0.9,52,0.00,,,0.00,WUHU21623XXSP,2013-04-02 09:20:00,
2013-04-02 04:25:00,23.2,8.1,30.21,WSW,247,0.0,0.9,52,0.00,,,0.00,WUHU21623XXSP,2013-04-02 09:25:00,
2013-04-02 04:30:00,23.2,8.1,30.21,West,270,0.0,0.0,52,0.00,,,0.00,WUHU21623XXSP,2013-04-02 09:30:00,
2013-04-02 04:35:00,23.0,8.3,30.21,WSW,247,0.0,0.0,53,0.00,,,0.00,WUHU21623XXSP,2013-04-02 09:35:00,
2013-04-02 04:40:00,23.0,8.3,30.22,West,270,0.0,0.0,53,0.00,,,0.00,WUHU21623XXSP,2013-04-02 09:40:00,
2013-04-02 04:45:00,22.8,8.2,30.22,WNW,292,0.0,0.0,53,0.00,,,0.00,WUHU21623XXSP,2013-04-02 09:45:00,
2013-04-02 04:50:00,22.8,8.2,30.21,West,270,0.0,0.0,53,0.00,,,0.00,WUHU21623XXSP,2013-04-02 09:50:00,
2013-04-02 04:55:00,22.8,8.2,30.22,West,270,0.0,0.0,53,0.00,,,0.00,WUHU21623XXSP,2013-04-02 09:55:00,
2013-04-02 05:00:00,22.8,8.2,30.22,WSW,247,0.0,0.0,53,0.00,,,0.00,WUHU21623XXSP,2013-04-02 10:00:00,
2013-04-02 05:05:00,22.8,8.2,30.22,NW,315,0.0,0.0,53,0.00,,,0.00,WUHU21623XXSP,2013-04-02 10:05:00,
2013-04-02 05:10:00,22.8,8.2,30.22,WNW,292,0.0,0.0,53,0.00,,,0.00,WUHU21623XXSP,2013-04-02 10:10:00,
2013-04-02 05:15:00,22.8,8.2,30.22,NW,315,0.0,0.0,53,0.00,,,0.00,WUHU21623XXSP,2013-04-02 10:15:00,
2013-04-02 05:20:00,22.8,8.2,30.22,WSW,247,0.0,0.0,53,0.00,,,0.00,WUHU21623XXSP,2013-04-02 10:20:00,
2013-04-02 05:25:00,22.8,8.2,30.22,WNW,292,0.0,0.0,53,0.00,,,0.00,WUHU21623XXSP,2013-04-02 10:25:00,
2013-04-02 05:30:00,22.8,8.2,30.22,West,270,0.0,0.0,53,0.00,,,0.00,WUHU21623XXSP,2013-04-02 10:30:00,
2013-04-02 05:35:00,22.8,8.2,30.22,WNW,292,0.0,0.0,53,0.00,,,0.00,WUHU21623XXSP,2013-04-02 10:35:00,
2013-04-02 05:40:00,22.8,8.2,30.22,WNW,292,0.0,0.0,53,0.00,,,0.00,WUHU21623XXSP,2013-04-02 10:40:00,
2013-04-02 05:45:00,22.6,8.0,30.22,WNW,292,0.0,0.9,53,0.00,,,0.00,WUHU21623XXSP,2013-04-02 10:45:00,
2013-04-02 05:50:00,22.5,7.8,30.23,West,270,0.0,0.9,53,0.00,,,0.00,WUHU21623XXSP,2013-04-02 10:50:00,
2013-04-02 05:55:00,22.6,8.0,30.22,West,270,0.0,0.0,53,0.00,,,0.00,WUHU21623XXSP,2013-04-02 10:55:00,
2013-04-02 06:00:00,22.5,7.8,30.22,NW,315,0.0,0.0,53,0.00,,,0.00,WUHU21623XXSP,2013-04-02 11:00:00,
2013-04-02 06:05:00,22.5,7.8,30.22,NW,315,0.0,0.0,53,0.00,,,0.00,WUHU21623XXSP,2013-04-02 11:05:00,
2013-04-02 06:10:00,22.3,7.6,30.22,NW,315,0.0,0.0,53,0.00,,,0.00,WUHU21623XXSP,2013-04-02 11:10:00,
2013-04-02 06:15:00,22.3,7.2,30.22,NNW,337,0.0,0.0,52,0.00,,,0.00,WUHU21623XXSP,2013-04-02 11:15:00,
2013-04-02 06:20:00,22.3,7.6,30.22,NW,315,0.0,0.0,53,0.00,,,0.00,WUHU21623XXSP,2013-04-02 11:20:00,
2013-04-02 06:25:00,22.3,7.6,30.22,NW,315,0.0,0.0,53,0.00,,,0.00,WUHU21623XXSP,2013-04-02 11:25:00,
2013-04-02 06:30:00,22.3,7.6,30.22,NNW,337,0.0,0.0,53,0.00,,,0.00,WUHU21623XXSP,2013-04-02 11:30:00,
2013-04-02 06:35:00,22.1,7.5,30.22,NW,315,0.0,0.0,53,0.00,,,0.00,WUHU21623XXSP,2013-04-02 11:35:00,
2013-04-02 06:40:00,22.1,7.5,30.23,NW,315,0.0,0.0,53,0.00,,,0.00,WUHU21623XXSP,2013-04-02 11:40:00,
2013-04-02 06:45:00,22.1,7.5,30.23,NW,315,0.0,0.0,53,0.00,,,0.00,WUHU21623XXSP,2013-04-02 11:45:00,
2013-04-02 06:50:00,22.3,7.6,30.24,WSW,247,0.0,0.0,53,0.00,,,0.00,WUHU21623XXSP,2013-04-02 11:50:00,
2013-04-02 06:55:00,22.3,7.6,30.24,West,270,0.0,0.0,53,0.00,,,0.00,WUHU21623XXSP,2013-04-02 11:55:00,
2013-04-02 07:00:00,22.5,7.8,30.24,WNW,292,0.0,0.0,53,0.00,,,0.00,WUHU21623XXSP,2013-04-02 12:00:00,
2013-04-02 07:05:00,22.5,8.2,30.24,WNW,292,0.0,0.0,54,0.00,,,0.00,WUHU21623XXSP,2013-04-02 12:05:00,
2013-04-02 07:10:00,22.6,8.4,30.24,WNW,292,0.0,0.0,54,0.00,,,0.00,WUHU21623XXSP,2013-04-02 12:10:00,
2013-04-02 07:15:00,22.6,8.4,30.25,WNW,292,0.0,0.0,54,0.00,,,0.00,WUHU21623XXSP,2013-04-02 12:15:00,
2013-04-02 07:20:00,22.8,8.6,30.25,NW,315,0.7,0.7,54,0.00,,,0.00,WUHU21623XXSP,2013-04-02 12:20:00,
2013-04-02 07:25:00,23.2,8.9,30.25,NW,315,0.0,0.7,54,0.00,,,0.00,WUHU21623XXSP,2013-04-02 12:25:00,
2013-04-02 07:30:00,23.4,9.5,30.25,NW,315,0.0,0.0,55,0.00,,,0.00,WUHU21623XXSP,2013-04-02 12:30:00,
2013-04-02 07:35:00,24.6,10.7,30.26,NW,315,0.0,0.0,55,0.00,,,0.00,WUHU21623XXSP,2013-04-02 12:35:00,
2013-04-02 07:40:00,25.2,11.2,30.26,West,270,0.0,0.0,55,0.00,,,0.00,WUHU21623XXSP,2013-04-02 12:40:00,
2013-04-02 07:46:00,25.5,11.5,30.26,West,270,0.0,0.0,55,0.00,,,0.00,WUHU21623XXSP,2013-04-02 12:46:00,
2013-04-02 07:50:00,25.7,11.7,30.26,West,270,0.7,0.7,55,0.00,,,0.00,WUHU21623XXSP,2013-04-02 12:50:00,
2013-04-02 07:55:00,25.9,11.8,30.26,WNW,292,2.0,2.0,55,0.00,,,0.00,WUHU21623XXSP,2013-04-02 12:55:00,
2013-04-02 08:00:00,26.4,12.1,30.26,WSW,247,0.0,2.0,55,0.00,,,0.00,WUHU21623XXSP,2013-04-02 13:00:00,
2013-04-02 08:05:00,26.8,12.6,30.26,NNW,337,0.0,1.8,55,0.00,,,0.00,WUHU21623XXSP,2013-04-02 13:05:00,
2013-04-02 08:11:00,27.3,13.2,30.26,North,0,0.7,1.8,55,0.00,,,0.00,WUHU21623XXSP,2013-04-02 13:11:00,
2013-04-02 08:16:00,27.9,13.3,30.26,West,270,0.0,0.7,54,0.00,,,0.00,WUHU21623XXSP,2013-04-02 13:16:00,
2013-04-02 08:21:00,28.6,13.9,30.26,NNW,337,0.9,1.3,54,0.00,,,0.00,WUHU21623XXSP,2013-04-02 13:21:00,
2013-04-02 08:26:00,29.1,14.1,30.26,NW,315,0.0,1.3,53,0.00,,,0.00,WUHU21623XXSP,2013-04-02 13:26:00,
2013-04-02 08:31:00,30.0,14.5,30.26,NW,315,1.1,4.0,52,0.00,,,0.00,WUHU21623XXSP,2013-04-02 13:31:00,
2013-04-02 08:36:00,30.6,14.6,30.26,WNW,292,0.0,4.0,51,0.00,,,0.00,WUHU21623XXSP,2013-04-02 13:36:00,
2013-04-02 08:41:00,30.7,14.7,30.26,WNW,292,1.1,3.1,51,0.00,,,0.00,WUHU21623XXSP,2013-04-02 13:41:00,
2013-04-02 08:46:00,31.5,14.6,30.27,WNW,292,1.3,3.4,50,0.00,,,0.00,WUHU21623XXSP,2013-04-02 13:46:00,
2013-04-02 08:51:00,31.6,14.6,30.26,West,270,0.0,3.4,49,0.00,,,0.00,WUHU21623XXSP,2013-04-02 13:51:00,
2013-04-02 08:56:00,32.2,15.1,30.26,WNW,292,1.3,1.3,49,0.00,,,0.00,WUHU21623XXSP,2013-04-02 13:56:00,
2013-04-02 09:01:00,32.7,15.1,30.27,NW,315,0.0,1.3,48,0.00,,,0.00,WUHU21623XXSP,2013-04-02 14:01:00,
2013-04-02 09:06:00,33.3,15.6,30.27,NNW,337,1.3,2.9,48,0.00,,,0.00,WUHU21623XXSP,2013-04-02 14:06:00,
2013-04-02 09:10:00,33.6,15.4,30.26,WSW,247,0.0,2.9,47,0.00,,,0.00,WUHU21623XXSP,2013-04-02 14:10:00,
2013-04-02 09:15:00,34.0,14.2,30.27,NW,315,1.3,4.0,44,0.00,,,0.00,WUHU21623XXSP,2013-04-02 14:15:00,
2013-04-02 09:20:00,34.3,14.0,30.27,NW,315,2.9,5.6,43,0.00,,,0.00,WUHU21623XXSP,2013-04-02 14:20:00,
2013-04-02 09:25:00,34.7,14.4,30.27,NNW,337,0.0,5.6,43,0.00,,,0.00,WUHU21623XXSP,2013-04-02 14:25:00,
2013-04-02 09:30:00,35.1,13.7,30.27,NW,315,1.6,3.4,41,0.00,,,0.00,WUHU21623XXSP,2013-04-02 14:30:00,
2013-04-02 09:35:00,35.6,13.6,30.27,NNW,337,2.5,2.5,40,0.00,,,0.00,WUHU21623XXSP,2013-04-02 14:35:00,
2013-04-02 09:40:00,36.0,14.0,30.27,NW,315,0.9,2.7,40,0.00,,,0.00,WUHU21623XXSP,2013-04-02 14:40:00,
2013-04-02 09:45:00,37.0,14.3,30.27,West,270,3.6,3.6,39,0.00,,,0.00,WUHU21623XXSP,2013-04-02 14:45:00,
2013-04-02 09:50:00,37.0,11.7,30.27,West,270,3.4,3.6,35,0.00,,,0.00,WUHU21623XXSP,2013-04-02 14:50:00,
2013-04-02 09:55:00,36.5,8.0,30.27,WSW,247,1.8,3.4,30,0.00,,,0.00,WUHU21623XXSP,2013-04-02 14:55:00,
2013-04-02 10:00:00,37.2,6.9,30.27,NW,315,6.5,6.5,28,0.00,,,0.00,WUHU21623XXSP,2013-04-02 15:00:00,
2013-04-02 10:05:00,37.4,0.0,30.27,WSW,247,0.0,6.5,20,0.00,,,0.00,WUHU21623XXSP,2013-04-02 15:05:00,
2013-04-02 10:10:00,37.2,-1.3,30.27,WSW,247,0.0,0.9,19,0.00,,,0.00,WUHU21623XXSP,2013-04-02 15:10:00,
2013-04-02 10:15:00,37.6,-1.0,30.27,West,270,0.0,0.0,19,0.00,,,0.00,WUHU21623XXSP,2013-04-02 15:15:00,
2013-04-02 10:20:00,38.1,-0.6,30.27,West,270,0.7,0.7,19,0.00,,,0.00,WUHU21623XXSP,2013-04-02 15:20:00,
2013-04-02 10:25:00,38.8,0.0,30.27,WNW,292,1.8,2.7,19,0.00,,,0.00,WUHU21623XXSP,2013-04-02 15:25:00,
2013-04-02 10:30:00,39.4,0.5,30.27,NW,315,0.0,2.7,19,0.00,,,0.00,WUHU21623XXSP,2013-04-02 15:30:00,
2013-04-02 10:35:00,39.9,0.9,30.27,NW,315,5.6,5.6,19,0.00,,,0.00,WUHU21623XXSP,2013-04-02 15:35:00,
2013-04-02 10:41:00,40.6,1.5,30.27,WSW,247,1.8,5.6,19,0.00,,,0.00,WUHU21623XXSP,2013-04-02 15:41:00,
2013-04-02 10:46:00,40.1,1.1,30.27,SW,225,0.7,4.0,19,0.00,,,0.00,WUHU21623XXSP,2013-04-02 15:46:00,
2013-04-02 10:51:00,39.7,0.7,30.27,WNW,292,1.6,3.4,19,0.00,,,0.00,WUHU21623XXSP,2013-04-02 15:51:00,
2013-04-02 10:56:00,39.9,0.9,30.27,NNW,337,0.2,2.5,19,0.00,,,0.00,WUHU21623XXSP,2013-04-02 15:56:00,
2013-04-02 11:01:00,39.6,0.7,30.27,SW,225,0.0,2.5,19,0.00,,,0.00,WUHU21623XXSP,2013-04-02 16:01:00,
2013-04-02 11:06:00,39.9,0.9,30.27,WNW,292,1.1,1.3,19,0.00,,,0.00,WUHU21623XXSP,2013-04-02 16:06:00,
2013-04-02 11:11:00,39.9,0.9,30.27,WNW,292,0.0,4.9,19,0.00,,,0.00,WUHU21623XXSP,2013-04-02 16:11:00,
2013-04-02 11:16:00,40.1,1.1,30.27,WNW,292,4.0,4.0,19,0.00,,,0.00,WUHU21623XXSP,2013-04-02 16:16:00,
2013-04-02 11:21:00,41.2,2.0,30.27,SSE,157,0.0,4.0,19,0.00,,,0.00,WUHU21623XXSP,2013-04-02 16:21:00,
2013-04-02 11:26:00,41.5,2.2,30.27,WSW,247,0.0,1.1,19,0.00,,,0.00,WUHU21623XXSP,2013-04-02 16:26:00,
2013-04-02 11:32:00,41.9,2.6,30.26,South,180,0.0,3.1,19,0.00,,,0.00,WUHU21623XXSP,2013-04-02 16:32:00,
2013-04-02 11:37:00,41.9,2.6,30.26,SSW,202,0.0,3.1,19,0.00,,,0.00,WUHU21623XXSP,2013-04-02 16:37:00,
2013-04-02 11:42:00,42.3,2.9,30.26,SSW,202,0.0,1.1,19,0.00,,,0.00,WUHU21623XXSP,2013-04-02 16:42:00,
2013-04-02 11:47:00,42.4,3.0,30.26,WSW,247,0.0,0.7,19,0.00,,,0.00,WUHU21623XXSP,2013-04-02 16:47:00,
2013-04-02 11:52:00,42.8,3.3,30.26,SW,225,3.6,3.6,19,0.00,,,0.00,WUHU21623XXSP,2013-04-02 16:52:00,
2013-04-02 11:57:00,42.1,2.7,30.26,SW,225,0.9,5.1,19,0.00,,,0.00,WUHU21623XXSP,2013-04-02 16:57:00,
2013-04-02 12:02:00,42.3,2.9,30.26,NW,315,6.0,6.0,19,0.00,,,0.00,WUHU21623XXSP,2013-04-02 17:02:00,
2013-04-02 12:07:00,42.6,3.1,30.26,NW,315,5.8,6.0,19,0.00,,,0.00,WUHU21623XXSP,2013-04-02 17:07:00,
2013-04-02 12:12:00,43.3,3.7,30.26,West,270,1.3,5.8,19,0.00,,,0.00,WUHU21623XXSP,2013-04-02 17:12:00,
2013-04-02 12:17:00,43.7,4.1,30.25,NW,315,2.9,5.4,19,0.00,,,0.00,WUHU21623XXSP,2013-04-02 17:17:00,
2013-04-02 12:23:00,44.1,4.4,30.25,WSW,247,2.0,2.9,19,0.00,,,0.00,WUHU21623XXSP,2013-04-02 17:23:00,
2013-04-02 12:28:00,43.5,3.9,30.25,NW,315,4.7,5.6,19,0.00,,,0.00,WUHU21623XXSP,2013-04-02 17:28:00,
2013-04-02 12:34:00,44.1,4.4,30.25,NW,315,6.7,6.7,19,0.00,,,0.00,WUHU21623XXSP,2013-04-02 17:34:00,
2013-04-02 12:39:00,44.2,4.5,30.25,West,270,1.6,6.7,19,0.00,,,0.00,WUHU21623XXSP,2013-04-02 17:39:00,
2013-04-02 12:44:00,45.0,5.1,30.25,WSW,247,1.1,2.7,19,0.00,,,0.00,WUHU21623XXSP,2013-04-02 17:44:00,
2013-04-02 12:49:00,44.8,5.0,30.25,West,270,0.7,4.7,19,0.00,,,0.00,WUHU21623XXSP,2013-04-02 17:49:00,
2013-04-02 12:54:00,44.2,4.5,30.24,WNW,292,4.9,4.9,19,0.00,,,0.00,WUHU21623XXSP,2013-04-02 17:54:00,
2013-04-02 12:59:00,44.8,5.0,30.24,WNW,292,4.5,4.9,19,0.00,,,0.00,WUHU21623XXSP,2013-04-02 17:59:00,
2013-04-02 13:04:00,45.9,5.9,30.24,NW,315,4.5,8.3,19,0.00,,,0.00,WUHU21623XXSP,2013-04-02 18:04:00,
2013-04-02 13:09:00,46.0,6.0,30.24,SW,225,0.9,6.9,19,0.00,,,0.00,WUHU21623XXSP,2013-04-02 18:09:00,
2013-04-02 13:14:00,46.0,6.0,30.24,WNW,292,0.0,6.9,19,0.00,,,0.00,WUHU21623XXSP,2013-04-02 18:14:00,
2013-04-02 13:19:00,46.8,6.6,30.24,WSW,247,2.2,5.1,19,0.00,,,0.00,WUHU21623XXSP,2013-04-02 18:19:00,
2013-04-02 13:24:00,47.1,6.9,30.23,NNW,337,5.4,6.5,19,0.00,,,0.00,WUHU21623XXSP,2013-04-02 18:24:00,
2013-04-02 13:29:00,47.1,6.9,30.23,West,270,2.0,6.5,19,0.00,,,0.00,WUHU21623XXSP,2013-04-02 18:29:00,
2013-04-02 13:34:00,47.3,7.0,30.23,WSW,247,3.6,5.8,19,0.00,,,0.00,WUHU21623XXSP,2013-04-02 18:34:00,
2013-04-02 13:39:00,46.6,6.5,30.23,SW,225,4.7,8.5,19,0.00,,,0.00,WUHU21623XXSP,2013-04-02 18:39:00,
2013-04-02 13:44:00,45.7,5.7,30.23,WNW,292,0.0,8.5,19,0.00,,,0.00,WUHU21623XXSP,2013-04-02 18:44:00,
2013-04-02 13:49:00,46.6,6.5,30.23,WSW,247,2.0,4.5,19,0.00,,,0.00,WUHU21623XXSP,2013-04-02 18:49:00,
2013-04-02 13:55:00,47.3,7.0,30.23,West,270,6.9,6.9,19,0.00,,,0.00,WUHU21623XXSP,2013-04-02 18:55:00,
2013-04-02 14:00:00,46.4,6.3,30.23,West,270,9.2,11.4,19,0.00,,,0.00,WUHU21623XXSP,2013-04-02 19:00:00,
2013-04-02 14:05:00,46.0,6.0,30.22,WSW,247,0.0,9.2,19,0.00,,,0.00,WUHU21623XXSP,2013-04-02 19:05:00,
2013-04-02 14:10:00,46.8,6.6,30.22,West,270,3.8,3.8,19,0.00,,,0.00,WUHU21623XXSP,2013-04-02 19:10:00,
2013-04-02 14:15:00,46.4,6.3,30.22,West,270,1.8,8.5,19,0.00,,,0.00,WUHU21623XXSP,2013-04-02 19:15:00,
2013-04-02 14:20:00,46.6,6.5,30.22,SW,225,1.6,8.5,19,0.00,,,0.00,WUHU21623XXSP,2013-04-02 19:20:00,
2013-04-02 14:25:00,47.1,6.9,30.22,West,270,3.4,6.9,19,0.00,,,0.00,WUHU21623XXSP,2013-04-02 19:25:00,
2013-04-02 14:30:00,47.3,7.0,30.22,West,270,3.6,6.9,19,0.00,,,0.00,WUHU21623XXSP,2013-04-02 19:30:00,
2013-04-02 14:35:00,47.1,6.9,30.22,WSW,247,1.6,7.2,19,0.00,,,0.00,WUHU21623XXSP,2013-04-02 19:35:00,
2013-04-02 14:40:00,46.9,6.7,30.22,SW,225,3.8,7.2,19,0.00,,,0.00,WUHU21623XXSP,2013-04-02 19:40:00,
2013-04-02 14:45:00,46.9,6.7,30.22,WNW,292,7.4,7.4,19,0.00,,,0.00,WUHU21623XXSP,2013-04-02 19:45:00,
2013-04-02 14:50:00,46.8,6.6,30.22,NW,315,4.7,8.7,19,0.00,,,0.00,WUHU21623XXSP,2013-04-02 19:50:00,
2013-04-02 14:56:00,46.2,6.1,30.22,NW,315,6.3,8.7,19,0.00,,,0.00,WUHU21623XXSP,2013-04-02 19:56:00,
2013-04-02 15:01:00,46.6,6.5,30.22,SW,225,2.2,6.3,19,0.00,,,0.00,WUHU21623XXSP,2013-04-02 20:01:00,
2013-04-02 15:06:00,45.5,5.6,30.22,WSW,247,5.6,6.7,19,0.00,,,0.00,WUHU21623XXSP,2013-04-02 20:06:00,
2013-04-02 15:12:00,45.1,5.2,30.22,West,270,7.8,7.8,19,0.00,,,0.00,WUHU21623XXSP,2013-04-02 20:12:00,
2013-04-02 15:17:00,44.2,4.5,30.22,WNW,292,2.7,7.8,19,0.00,,,0.00,WUHU21623XXSP,2013-04-02 20:17:00,
2013-04-02 15:22:00,44.2,4.5,30.21,WNW,292,4.3,7.4,19,0.00,,,0.00,WUHU21623XXSP,2013-04-02 20:22:00,
2013-04-02 15:27:00,44.1,4.4,30.21,North,0,1.3,10.3,19,0.00,,,0.00,WUHU21623XXSP,2013-04-02 20:27:00,
2013-04-02 15:32:00,44.4,4.6,30.21,WSW,247,5.1,10.3,19,0.00,,,0.00,WUHU21623XXSP,2013-04-02 20:32:00,
2013-04-02 15:37:00,44.4,4.6,30.21,WSW,247,7.8,7.8,19,0.00,,,0.00,WUHU21623XXSP,2013-04-02 20:37:00,
2013-04-02 15:42:00,44.2,4.5,30.21,West,270,0.0,7.8,19,0.00,,,0.00,WUHU21623XXSP,2013-04-02 20:42:00,
2013-04-02 15:47:00,45.9,5.9,30.21,NNW,337,5.1,5.8,19,0.00,,,0.00,WUHU21623XXSP,2013-04-02 20:47:00,
2013-04-02 15:52:00,45.9,5.9,30.21,West,270,8.7,8.7,19,0.00,,,0.00,WUHU21623XXSP,2013-04-02 20:52:00,
2013-04-02 15:57:00,44.4,4.6,30.21,North,0,2.2,8.7,19,0.00,,,0.00,WUHU21623XXSP,2013-04-02 20:57:00,
2013-04-02 16:02:00,44.4,4.6,30.21,West,270,2.7,5.1,19,0.00,,,0.00,WUHU21623XXSP,2013-04-02 21:02:00,
2013-04-02 16:07:00,44.2,4.5,30.22,NW,315,0.0,10.7,19,0.00,,,0.00,WUHU21623XXSP,2013-04-02 21:07:00,
2013-04-02 16:12:00,44.2,4.5,30.21,West,270,1.3,10.7,19,0.00,,,0.00,WUHU21623XXSP,2013-04-02 21:12:00,
2013-04-02 16:18:00,43.9,4.2,30.21,West,270,1.3,4.3,19,0.00,,,0.00,WUHU21623XXSP,2013-04-02 21:18:00,
2013-04-02 16:23:00,43.5,3.9,30.22,West,270,3.6,4.3,19,0.00,,,0.00,WUHU21623XXSP,2013-04-02 21:23:00,
2013-04-02 16:28:00,43.0,3.5,30.22,WSW,247,5.1,6.7,19,0.00,,,0.00,WUHU21623XXSP,2013-04-02 21:28:00,
2013-04-02 16:33:00,43.3,3.7,30.22,WNW,292,2.0,6.7,19,0.00,,,0.00,WUHU21623XXSP,2013-04-02 21:33:00,
2013-04-02 16:38:00,44.1,4.4,30.22,WSW,247,0.4,6.9,19,0.00,,,0.00,WUHU21623XXSP,2013-04-02 21:38:00,
2013-04-02 16:43:00,44.8,5.0,30.22,WSW,247,4.3,6.9,19,0.00,,,0.00,WUHU21623XXSP,2013-04-02 21:43:00,
2013-04-02 16:48:00,44.8,5.0,30.22,WNW,292,3.8,4.3,19,0.00,,,0.00,WUHU21623XXSP,2013-04-02 21:48:00,
2013-04-02 16:53:00,44.2,4.5,30.22,NW,315,2.0,3.8,19,0.00,,,0.00,WUHU21623XXSP,2013-04-02 21:53:00,
2013-04-02 16:58:00,43.7,4.1,30.22,WNW,292,0.0,6.0,19,0.00,,,0.00,WUHU21623XXSP,2013-04-02 21:58:00,
2013-04-02 17:03:00,43.5,3.9,30.22,North,0,0.0,6.0,19,0.00,,,0.00,WUHU21623XXSP,2013-04-02 22:03:00,
2013-04-02 17:08:00,43.2,3.6,30.22,NW,315,2.9,5.6,19,0.00,,,0.00,WUHU21623XXSP,2013-04-02 22:08:00,
2013-04-02 17:13:00,43.2,3.6,30.22,North,0,0.0,5.6,19,0.00,,,0.00,WUHU21623XXSP,2013-04-02 22:13:00,
2013-04-02 17:18:00,43.7,4.1,30.22,NNW,337,5.6,5.6,19,0.00,,,0.00,WUHU21623XXSP,2013-04-02 22:18:00,
2013-04-02 17:24:00,44.1,4.4,30.22,NW,315,2.7,5.6,19,0.00,,,0.00,WUHU21623XXSP,2013-04-02 22:24:00,
2013-04-02 17:29:00,43.9,4.2,30.22,West,270,3.1,6.7,19,0.00,,,0.00,WUHU21623XXSP,2013-04-02 22:29:00,
2013-04-02 17:34:00,43.7,4.1,30.22,North,0,1.1,6.7,19,0.00,,,0.00,WUHU21623XXSP,2013-04-02 22:34:00,
2013-04-02 17:39:00,43.7,4.1,30.22,West,270,0.0,3.1,19,0.00,,,0.00,WUHU21623XXSP,2013-04-02 22:39:00,
2013-04-02 17:44:00,44.1,4.4,30.22,NW,315,6.7,6.7,19,0.00,,,0.00,WUHU21623XXSP,2013-04-02 22:44:00,
2013-04-02 17:49:00,44.2,4.5,30.22,NW,315,0.9,6.7,19,0.00,,,0.00,WUHU21623XXSP,2013-04-02 22:49:00,
2013-04-02 17:54:00,44.2,4.5,30.22,NW,315,5.1,5.1,19,0.00,,,0.00,WUHU21623XXSP,2013-04-02 22:54:00,
2013-04-02 17:59:00,44.2,4.5,30.22,WNW,292,1.1,5.1,19,0.00,,,0.00,WUHU21623XXSP,2013-04-02 22:59:00,
2013-04-02 18:04:00,43.7,4.1,30.22,West,270,0.0,3.4,19,0.00,,,0.00,WUHU21623XXSP,2013-04-02 23:04:00,
2013-04-02 18:09:00,43.5,3.9,30.22,WNW,292,1.6,1.8,19,0.00,,,0.00,WUHU21623XXSP,2013-04-02 23:09:00,
2013-04-02 18:14:00,43.5,3.9,30.22,NW,315,2.0,6.5,19,0.00,,,0.00,WUHU21623XXSP,2013-04-02 23:14:00,
2013-04-02 18:19:00,43.2,3.6,30.23,NNW,337,1.3,6.5,19,0.00,,,0.00,WUHU21623XXSP,2013-04-02 23:19:00,
2013-04-02 18:24:00,43.2,3.6,30.23,North,0,1.6,2.0,19,0.00,,,0.00,WUHU21623XXSP,2013-04-02 23:24:00,
2013-04-02 18:29:00,43.0,3.5,30.22,NNW,337,4.7,4.7,19,0.00,,,0.00,WUHU21623XXSP,2013-04-02 23:29:00,
2013-04-02 18:34:00,42.4,3.0,30.23,NW,315,3.8,4.7,19,0.00,,,0.00,WUHU21623XXSP,2013-04-02 23:34:00,
2013-04-02 18:39:00,42.3,2.9,30.23,WNW,292,4.5,6.0,19,0.00,,,0.00,WUHU21623XXSP,2013-04-02 23:39:00,
2013-04-02 18:44:00,41.5,2.2,30.23,WSW,247,3.4,6.0,19,0.00,,,0.00,WUHU21623XXSP,2013-04-02 23:44:00,
2013-04-02 18:49:00,40.6,1.5,30.23,NW,315,0.0,3.6,19,0.00,,,0.00,WUHU21623XXSP,2013-04-02 23:49:00,
2013-04-02 18:54:00,40.1,1.1,30.24,NW,315,5.4,9.4,19,0.00,,,0.00,WUHU21623XXSP,2013-04-02 23:54:00,
2013-04-02 18:59:00,39.6,0.7,30.24,NNW,337,1.6,9.4,19,0.00,,,0.00,WUHU21623XXSP,2013-04-02 23:59:00,
2013-04-02 19:04:00,39.2,0.3,30.24,WNW,292,0.0,3.6,19,0.00,,,0.00,WUHU21623XXSP,2013-04-03 00:04:00,
2013-04-02 19:09:00,38.8,0.0,30.24,WNW,292,4.0,4.0,19,0.00,,,0.00,WUHU21623XXSP,2013-04-03 00:09:00,
2013-04-02 19:14:00,38.5,-0.3,30.24,NW,315,0.0,4.0,19,0.00,,,0.00,WUHU21623XXSP,2013-04-03 00:14:00,
2013-04-02 19:19:00,38.1,-0.6,30.24,WNW,292,0.7,1.3,19,0.00,,,0.00,WUHU21623XXSP,2013-04-03 00:19:00,
2013-04-02 19:25:00,37.8,-0.8,30.24,NW,315,2.5,2.5,19,0.00,,,0.00,WUHU21623XXSP,2013-04-03 00:25:00,
2013-04-02 19:30:00,37.2,-1.3,30.24,ENE,67,2.9,6.3,19,0.00,,,0.00,WUHU21623XXSP,2013-04-03 00:30:00,
2013-04-02 19:35:00,36.9,-1.6,30.24,NW,315,0.4,6.3,19,0.00,,,0.00,WUHU21623XXSP,2013-04-03 00:35:00,
2013-04-02 19:40:00,36.7,-1.8,30.24,NNW,337,0.0,0.4,19,0.00,,,0.00,WUHU21623XXSP,2013-04-03 00:40:00,
2013-04-02 19:46:00,36.3,-2.1,30.25,NE,45,1.3,1.3,19,0.00,,,0.00,WUHU21623XXSP,2013-04-03 00:46:00,
2013-04-02 19:51:00,36.0,-2.3,30.25,NW,315,0.0,2.9,19,0.00,,,0.00,WUHU21623XXSP,2013-04-03 00:51:00,
2013-04-02 19:56:00,35.8,-2.5,30.25,NW,315,0.0,3.4,19,0.00,,,0.00,WUHU21623XXSP,2013-04-03 00:56:00,
2013-04-02 20:01:00,35.4,-2.8,30.25,WNW,292,0.0,3.4,19,0.00,,,0.00,WUHU21623XXSP,2013-04-03 01:01:00,
2013-04-02 20:07:00,35.2,-3.0,30.25,NNW,337,0.0,0.0,19,0.00,,,0.00,WUHU21623XXSP,2013-04-03 01:07:00,
2013-04-02 20:12:00,35.1,-3.1,30.25,WNW,292,0.0,0.0,19,0.00,,,0.00,WUHU21623XXSP,2013-04-03 01:12:00,
2013-04-02 20:17:00,34.7,-3.4,30.26,NW,315,0.0,0.0,19,0.00,,,0.00,WUHU21623XXSP,2013-04-03 01:17:00,
2013-04-02 20:22:00,34.7,-3.4,30.25,NW,315,0.0,0.7,19,0.00,,,0.00,WUHU21623XXSP,2013-04-03 01:22:00,
2013-04-02 20:27:00,34.5,-3.6,30.26,NW,315,0.0,0.7,19,0.00,,,0.00,WUHU21623XXSP,2013-04-03 01:27:00,
2013-04-02 20:32:00,34.2,-3.8,30.26,NW,315,0.0,0.0,19,0.00,,,0.00,WUHU21623XXSP,2013-04-03 01:32:00,
2013-04-02 20:37:00,34.2,-3.8,30.27,NNW,337,0.0,0.0,19,0.00,,,0.00,WUHU21623XXSP,2013-04-03 01:37:00,
2013-04-02 20:42:00,34.0,-4.0,30.27,NW,315,0.0,0.0,19,0.00,,,0.00,WUHU21623XXSP,2013-04-03 01:42:00,
2013-04-02 20:47:00,33.6,-4.3,30.27,NW,315,0.0,0.0,19,0.00,,,0.00,WUHU21623XXSP,2013-04-03 01:47:00,
2013-04-02 20:52:00,33.4,-4.5,30.27,NW,315,0.0,0.0,19,0.00,,,0.00,WUHU21623XXSP,2013-04-03 01:52:00,
2013-04-02 20:57:00,33.3,-4.6,30.27,NW,315,0.0,0.0,19,0.00,,,0.00,WUHU21623XXSP,2013-04-03 01:57:00,
2013-04-02 21:02:00,33.3,-4.6,30.27,NW,315,0.0,0.0,19,0.00,,,0.00,WUHU21623XXSP,2013-04-03 02:02:00,
2013-04-02 21:07:00,33.1,-4.7,30.27,NW,315,0.0,0.0,19,0.00,,,0.00,WUHU21623XXSP,2013-04-03 02:07:00,
2013-04-02 21:12:00,32.9,-4.9,30.27,WNW,292,0.0,0.0,19,0.00,,,0.00,WUHU21623XXSP,2013-04-03 02:12:00,
2013-04-02 21:17:00,32.9,-4.9,30.27,WNW,292,0.0,0.0,19,0.00,,,0.00,WUHU21623XXSP,2013-04-03 02:17:00,
2013-04-02 21:22:00,32.7,-5.1,30.28,WNW,292,0.0,0.0,19,0.00,,,0.00,WUHU21623XXSP,2013-04-03 02:22:00,
2013-04-02 21:27:00,32.7,-5.1,30.28,NW,315,0.0,0.0,19,0.00,,,0.00,WUHU21623XXSP,2013-04-03 02:27:00,
2013-04-02 21:32:00,32.5,-5.2,30.28,NNW,337,0.0,0.0,19,0.00,,,0.00,WUHU21623XXSP,2013-04-03 02:32:00,
2013-04-02 21:37:00,32.4,-5.3,30.28,NW,315,0.0,0.0,19,0.00,,,0.00,WUHU21623XXSP,2013-04-03 02:37:00,
2013-04-02 21:42:00,32.2,-5.5,30.29,WNW,292,0.0,0.0,19,0.00,,,0.00,WUHU21623XXSP,2013-04-03 02:42:00,
2013-04-02 21:47:00,32.2,-5.5,30.29,NNW,337,0.0,0.0,19,0.00,,,0.00,WUHU21623XXSP,2013-04-03 02:47:00,
2013-04-02 21:52:00,31.6,-6.0,30.29,NW,315,0.0,0.0,19,0.00,,,0.00,WUHU21623XXSP,2013-04-03 02:52:00,
2013-04-02 21:57:00,31.5,-6.1,30.29,NNW,337,0.0,0.0,19,0.00,,,0.00,WUHU21623XXSP,2013-04-03 02:57:00,
2013-04-02 22:02:00,31.3,-6.2,30.29,NW,315,0.0,0.0,19,0.00,,,0.00,WUHU21623XXSP,2013-04-03 03:02:00,
2013-04-02 22:07:00,31.3,-6.2,30.29,NW,315,0.0,1.1,19,0.00,,,0.00,WUHU21623XXSP,2013-04-03 03:07:00,
2013-04-02 22:12:00,31.1,-6.4,30.29,NNW,337,0.0,1.1,19,0.00,,,0.00,WUHU21623XXSP,2013-04-03 03:12:00,
2013-04-02 22:18:00,31.1,-6.4,30.29,NW,315,0.0,0.0,19,0.00,,,0.00,WUHU21623XXSP,2013-04-03 03:18:00,
2013-04-02 22:23:00,30.9,-6.6,30.29,NNW,337,0.0,1.3,19,0.00,,,0.00,WUHU21623XXSP,2013-04-03 03:23:00,
2013-04-02 22:28:00,30.9,-6.6,30.29,NW,315,0.0,1.3,19,0.00,,,0.00,WUHU21623XXSP,2013-04-03 03:28:00,
2013-04-02 22:33:00,30.7,-6.7,30.29,NNW,337,0.0,0.0,19,0.00,,,0.00,WUHU21623XXSP,2013-04-03 03:33:00,
2013-04-02 22:38:00,30.6,-6.8,30.30,North,0,0.0,0.0,19,0.00,,,0.00,WUHU21623XXSP,2013-04-03 03:38:00,
2013-04-02 22:43:00,30.6,-6.8,30.30,NW,315,0.0,0.0,19,0.00,,,0.00,WUHU21623XXSP,2013-04-03 03:43:00,
2013-04-02 22:48:00,30.4,-7.0,30.30,NW,315,0.0,0.0,19,0.00,,,0.00,WUHU21623XXSP,2013-04-03 03:48:00,
2013-04-02 22:53:00,30.0,-7.3,30.30,NW,315,0.0,0.0,19,0.00,,,0.00,WUHU21623XXSP,2013-04-03 03:53:00,
2013-04-02 22:58:00,30.0,-7.3,30.30,NNW,337,0.0,0.0,19,0.00,,,0.00,WUHU21623XXSP,2013-04-03 03:58:00,
2013-04-02 23:00:00,29.8,-7.5,30.30,NNW,337,0.0,0.0,19,0.00,,,0.00,WUHU21623XXSP,2013-04-03 04:00:00,
2013-04-02 23:05:00,29.8,-5.6,30.30,NW,315,0.0,0.0,21,0.00,,,0.00,WUHU21623XXSP,2013-04-03 04:05:00,
2013-04-02 23:10:00,29.7,-4.0,30.30,NNW,337,0.0,0.0,23,0.00,,,0.00,WUHU21623XXSP,2013-04-03 04:10:00,
2013-04-02 23:15:00,29.7,-4.0,30.30,NNW,337,0.0,0.0,23,0.00,,,0.00,WUHU21623XXSP,2013-04-03 04:15:00,
2013-04-02 23:20:00,29.3,-3.5,30.30,NW,315,0.0,0.0,24,0.00,,,0.00,WUHU21623XXSP,2013-04-03 04:20:00,
2013-04-02 23:25:00,29.3,-1.8,30.30,NNW,337,0.0,0.0,26,0.00,,,0.00,WUHU21623XXSP,2013-04-03 04:25:00,
2013-04-02 23:30:00,29.3,0.0,30.30,NNW,337,0.0,0.0,28,0.00,,,0.00,WUHU21623XXSP,2013-04-03 04:30:00,
2013-04-02 23:35:00,29.1,1.5,30.30,North,0,0.0,0.0,30,0.00,,,0.00,WUHU21623XXSP,2013-04-03 04:35:00,
2013-04-02 23:40:00,28.9,1.3,30.30,NNW,337,0.0,0.0,30,0.00,,,0.00,WUHU21623XXSP,2013-04-03 04:40:00,
2013-04-02 23:45:00,28.8,1.2,30.30,NW,315,0.0,0.0,30,0.00,,,0.00,WUHU21623XXSP,2013-04-03 04:45:00,
2013-04-02 23:50:00,28.8,1.8,30.30,NNW,337,0.0,0.0,31,0.00,,,0.00,WUHU21623XXSP,2013-04-03 04:50:00,
2013-04-02 23:55:00,28.6,1.0,30.30,NW,315,0.0,0.0,30,0.00,,,0.00,WUHU21623XXSP,2013-04-03 04:55:00,